Vorticity
5 5 5 4 1 3 3 4 3 6 11 9 7 8 8 8 8 7 6 6 5 4 4 7 5 7 11 9 3 10 18 19 8 6 16 10 12 17 13 16 11 19 23 20 15 7 8
4 4 5 6 3 1 3 3 3 3 5 9 9 8 7 8 8 7 6 6 6 6 4 6 5 5 8 12 7 7 10 24 12 4 6 20 13 13 8 -0 23 11 17 15 21 20 7
4 4 4 5 6 2 2 3 3 2 1 3 7 8 8 8 9 9 8 6 6 6 4 5 5 7 6 7 13 6 8 13 25 11 3 11 18 13 12 25 18 20 20 23 23 17 16
4 4 4 4 5 6 1 3 4 4 2 1 1 4 7 6 9 8 8 8 6 6 4 4 5 7 6 5 10 6 7 11 25 17 7 11 15 22 17 15 10 7 9 11 21 24 13
4 4 4 4 5 6 4 2 4 5 6 4 2 1 1 5 8 6 7 10 10 8 8 6 4 7 6 5 8 11 9 7 10 16 14 9 12 23 16 12 11 8 9 11 10 18 1
4 4 4 4 5 5 7 4 1 4 6 6 8 3 1 2 0 2 7 5 8 10 11 7 4 7 7 5 5 5 10 8 10 13 13 8 7 16 14 19 4 -7 3 12 13 8 25
4 4 5 5 5 6 7 7 5 1 5 7 5 8 5 3 2 2 1 2 7 6 8 7 5 5 5 5 6 4 6 8 7 14 19 13 9 7 19 15 17 10 1 2 12 8 12
5 5 5 5 5 6 6 7 6 4 3 6 4 7 8 7 5 3 3 3 2 1 8 16 7 9 2 2 7 8 3 5 8 6 10 20 10 14 19 14 20 22 16 6 -4 -0 16
6 6 6 6 7 6 6 7 8 6 2 3 6 5 6 7 6 7 4 3 2 3 4 3 7 11 8 5 3 7 9 4 3 6 6 9 19 23 12 2 10 15 19 23 12 3 1
8 8 6 6 6 7 6 6 7 7 5 2 3 5 6 6 7 6 6 5 5 3 3 -1 3 6 11 9 5 5 8 8 4 4 8 7 14 15 18 13 10 10 11 10 9 11 13
7 7 5 6 7 7 7 7 8 8 7 4 2 3 5 8 8 4 8 6 6 6 6 1 4 2 3 9 9 7 3 10 6 5 2 9 6 26 12 12 15 14 14 19 21 10 16
7 4 5 3 6 7 7 8 9 8 7 7 5 2 2 4 9 7 6 7 7 6 9 6 4 3 3 4 6 10 8 6 9 8 5 2 5 4 20 19 14 10 9 4 5 15 6
8 6 3 3 4 6 8 7 8 8 7 7 7 6 3 1 3 2 3 4 5 6 5 3 4 5 4 4 2 3 10 10 5 8 9 7 5 4 5 18 16 11 6 8 16 5 16
-1 0 4 13 6 5 6 7 7 8 7 6 5 6 7 3 1 2 3 8 5 5 6 6 3 3 3 4 3 1 2 5 12 7 4 10 5 3 4 6 14 17 18 12 6 12 4
17 20 10 7 6 8 7 6 6 7 7 7 5 5 5 7 5 4 2 3 4 8 5 5 7 6 2 2 3 3 1 2 6 13 7 6 9 8 5 -1 4 3 6 6 9 7 16
9 6 6 8 8 10 10 8 8 9 10 10 15 17 11 7 6 5 5 7 6 6 6 4 5 4 5 5 2 4 4 4 2 7 11 9 6 6 8 8 5 2 1 1 2 4 6
10 10 10 8 8 8 7 9 11 10 9 10 9 8 8 8 11 9 8 8 6 8 8 7 4 7 6 2 5 3 4 4 4 0 9 9 12 4 7 10 11 12 7 4 6 7 11
11 21 22 20 11 9 5 1 7 12 12 11 11 12 13 14 12 15 18 19 17 18 24 15 15 3 2 18 1 5 2 2 4 4 0 4 8 14 4 3 7 7 7 8 8 3 10
2 -0 3 3 6 3 -0 2 5 6 5 4 8 9 9 8 7 6 5 1 -2 1 -1 -1 15 28 19 5 25 3 3 -1 3 3 5 3 2 8 16 8 4 5 4 2 8 11 3
1 3 1 2 -1 7 11 17 17 19 22 27 26 23 25 20 20 21 21 22 25 21 14 7 3 -2 -1 1 2 11 17 -0 2 1 -1 3 4 -3 10 9 14 7 4 4 3 2 14
3 7 4 14 21 26 19 11 10 10 11 11 7 5 4 0 3 9 6 5 6 7 9 16 22 13 10 9 7 5 -4 25 -1 1 5 1 1 4 -1 4 12 12 17 6 6 5 -0
16 15 22 16 10 10 10 8 8 8 4 1 2 6 2 -0 5 1 0 2 5 5 5 8 6 12 15 15 11 6 2 3 31 3 -1 4 2 3 3 3 -2 3 19 15 19 9 10
14 12 10 10 11 6 6 8 6 5 0 5 3 3 -1 6 1 1 1 3 3 2 1 4 4 5 7 7 8 15 8 2 6 11 10 7 3 2 0 4 4 6 -4 9 20 16 19
11 11 8 6 7 9 7 8 11 7 7 10 8 5 6 2 3 3 8 3 8 8 7 8 3 5 6 8 7 8 12 12 8 6 4 3 16 6 2 2 8 1 3 2 7 17 18
9 10 9 11 10 10 7 6 8 6 6 9 7 6 2 5 5 7 5 6 6 3 8 7 -0 7 8 17 10 10 9 9 16 5 4 11 3 14 6 3 -0 2 5 0 3 3 10
11 10 9 9 8 6 7 10 6 4 7 4 2 7 5 4 2 9 4 5 7 5 7 9 5 3 2 5 10 15 11 9 10 12 5 9 9 6 13 1 7 -2 4 2 9 -4 8
7 7 7 8 8 6 6 8 6 5 8 5 6 6 3 6 8 9 9 5 5 5 6 5 2 7 17 20 10 10 18 9 11 9 8 8 5 7 7 8 9 16 -2 5 5 8 4
9 10 12 12 10 10 9 8 8 10 6 4 4 6 8 13 7 7 2 6 11 13 11 17 21 25 27 21 38 39 35 15 13 9 11 9 14 6 7 8 4 8 20 1 14 11 6
10 11 11 10 9 8 8 9 9 7 7 4 6 5 8 10 13 5 3 10 18 26 41 45 34 35 34 35 28 14 10 26 22 13 10 15 15 17 9 9 2 3 1 6 -3 5 4
Height
5847 5845 5844 5842 5841 5838 5835 5833 5829 5826 5823 5820 5817 5815 5812 5810 5807 5804 5801 5798 5795 5791 5786 5781 5775 5768 5762 5755 5747 5737 5728 5721 5715 5709 5703 5698 5694 5690 5687 5686 5684 5685 5685 5687 5691 5696 5707
5844 5844 5843 5841 5839 5837 5835 5832 5830 5827 5823 5820 5817 5814 5811 5808 5805 5803 5800 5796 5792 5788 5784 5779 5773 5767 5761 5754 5745 5737 5728 5720 5714 5708 5702 5696 5691 5687 5684 5682 5680 5681 5682 5684 5687 5693 5698
5843 5841 5840 5839 5837 5836 5834 5831 5829 5826 5823 5820 5816 5813 5810 5807 5804 5801 5797 5794 5790 5786 5782 5777 5772 5766 5760 5753 5745 5737 5727 5719 5712 5706 5701 5695 5690 5686 5682 5678 5677 5677 5680 5681 5684 5687 5693
5840 5839 5837 5836 5835 5833 5832 5829 5827 5825 5822 5819 5816 5812 5809 5806 5803 5799 5795 5792 5787 5784 5780 5775 5770 5764 5758 5752 5744 5737 5728 5720 5711 5705 5700 5694 5689 5684 5681 5678 5676 5677 5678 5679 5681 5683 5685
5837 5836 5835 5833 5832 5830 5829 5827 5825 5823 5820 5818 5815 5812 5808 5804 5801 5798 5794 5790 5785 5781 5777 5773 5769 5763 5758 5751 5744 5736 5729 5721 5712 5705 5699 5694 5689 5684 5681 5679 5677 5677 5677 5677 5679 5679 5681
5834 5833 5832 5830 5828 5827 5826 5824 5823 5821 5818 5815 5813 5810 5806 5803 5799 5796 5792 5788 5784 5779 5775 5771 5767 5764 5756 5750 5743 5736 5728 5721 5713 5705 5700 5696 5690 5686 5681 5678 5677 5676 5675 5676 5676 5677 5678
5829 5829 5827 5826 5825 5823 5822 5820 5819 5817 5815 5812 5810 5807 5804 5801 5797 5793 5790 5786 5785 5779 5773 5769 5765 5760 5755 5748 5742 5736 5729 5722 5715 5709 5703 5697 5692 5687 5683 5678 5675 5675 5674 5674 5674 5674 5675
5825 5823 5823 5822 5820 5818 5817 5816 5814 5812 5811 5809 5806 5803 5800 5798 5794 5790 5787 5784 5781 5777 5772 5766 5762 5758 5753 5748 5742 5736 5731 5724 5716 5709 5703 5698 5690 5687 5683 5679 5675 5673 5673 5672 5672 5673 5673
5820 5819 5818 5816 5816 5814 5812 5811 5809 5808 5806 5804 5802 5800 5797 5793 5791 5787 5783 5780 5777 5775 5771 5766 5760 5755 5751 5748 5742 5737 5731 5725 5718 5711 5704 5697 5692 5686 5683 5681 5677 5674 5673 5671 5671 5670 5669
5815 5814 5813 5812 5810 5809 5807 5806 5804 5802 5800 5799 5797 5795 5792 5791 5788 5784 5780 5777 5773 5771 5769 5765 5759 5754 5749 5745 5741 5736 5730 5725 5719 5714 5706 5700 5694 5687 5683 5681 5678 5675 5673 5672 5670 5669 5667
5809 5808 5807 5806 5805 5804 5802 5800 5799 5797 5795 5793 5792 5789 5787 5784 5782 5779 5777 5774 5770 5767 5765 5762 5757 5753 5748 5743 5739 5736 5732 5726 5719 5713 5709 5702 5695 5690 5684 5681 5678 5676 5672 5670 5668 5665 5664
5803 5802 5801 5799 5798 5797 5795 5794 5792 5791 5789 5787 5785 5784 5781 5779 5776 5773 5771 5769 5767 5765 5760 5758 5754 5750 5747 5743 5738 5733 5729 5725 5722 5715 5709 5704 5697 5691 5686 5681 5678 5676 5673 5671 5668 5665 5663
5795 5794 5793 5792 5790 5789 5788 5786 5785 5784 5781 5780 5778 5777 5775 5772 5770 5768 5766 5764 5763 5760 5757 5753 5749 5747 5744 5740 5737 5732 5728 5724 5720 5717 5711 5706 5700 5694 5687 5682 5679 5677 5674 5672 5669 5666 5662
5786 5785 5784 5782 5781 5780 5778 5777 5776 5775 5773 5771 5769 5769 5768 5765 5764 5761 5759 5758 5756 5755 5751 5748 5745 5742 5739 5735 5733 5730 5726 5721 5717 5714 5710 5705 5701 5695 5689 5684 5681 5677 5675 5672 5668 5664 5662
5777 5776 5775 5774 5771 5770 5768 5767 5767 5766 5764 5763 5761 5759 5759 5755 5754 5753 5751 5750 5749 5747 5743 5741 5739 5737 5736 5732 5728 5724 5722 5718 5715 5711 5708 5703 5699 5694 5690 5685 5682 5678 5675 5673 5669 5665 5661
5767 5766 5764 5763 5761 5759 5758 5757 5755 5754 5753 5752 5750 5749 5747 5746 5744 5743 5741 5742 5740 5738 5734 5732 5731 5729 5728 5725 5723 5719 5717 5715 5711 5707 5703 5701 5699 5694 5689 5685 5682 5678 5675 5672 5668 5664 5661
5758 5757 5755 5753 5751 5749 5748 5746 5745 5743 5741 5740 5739 5738 5737 5736 5735 5733 5731 5731 5729 5728 5725 5722 5721 5719 5719 5717 5716 5713 5712 5710 5706 5703 5700 5696 5696 5693 5689 5685 5681 5678 5674 5670 5667 5663 5660
5749 5747 5745 5742 5740 5738 5737 5736 5734 5733 5731 5730 5729 5727 5725 5725 5725 5722 5722 5720 5720 5718 5717 5712 5710 5710 5708 5708 5706 5705 5706 5704 5700 5698 5696 5693 5690 5688 5687 5683 5680 5676 5673 5670 5666 5664 5659
5739 5737 5735 5733 5731 5729 5727 5725 5723 5722 5722 5720 5719 5717 5716 5714 5713 5712 5711 5711 5709 5707 5708 5706 5701 5700 5699 5698 5695 5695 5697 5697 5694 5692 5690 5688 5687 5684 5682 5681 5678 5675 5671 5668 5665 5662 5659
5728 5727 5725 5723 5720 5717 5715 5712 5710 5709 5709 5708 5707 5706 5706 5703 5702 5702 5701 5700 5698 5696 5695 5694 5693 5692 5691 5688 5685 5684 5688 5685 5685 5685 5682 5680 5680 5679 5677 5674 5673 5671 5669 5666 5662 5660 5657
5716 5714 5711 5709 5706 5703 5701 5700 5698 5697 5697 5697 5696 5695 5695 5694 5691 5691 5690 5690 5688 5684 5682 5681 5682 5680 5677 5676 5676 5678 5676 5674 5676 5676 5674 5671 5672 5671 5672 5668 5666 5665 5664 5661 5659 5658 5654
5703 5700 5698 5695 5693 5691 5689 5688 5688 5686 5686 5686 5686 5686 5686 5684 5682 5681 5679 5678 5676 5674 5671 5671 5666 5668 5665 5665 5663 5665 5663 5663 5665 5666 5664 5663 5662 5662 5663 5662 5659 5660 5657 5655 5654 5652 5651
5689 5687 5686 5684 5682 5680 5678 5677 5676 5675 5674 5673 5673 5673 5674 5675 5672 5670 5668 5665 5664 5660 5662 5656 5655 5652 5653 5651 5648 5649 5650 5651 5651 5652 5654 5652 5652 5651 5651 5654 5651 5654 5653 5649 5647 5646 5645
5676 5674 5673 5672 5670 5668 5666 5665 5663 5662 5661 5659 5659 5658 5658 5659 5656 5654 5653 5650 5649 5646 5645 5647 5637 5633 5636 5629 5632 5633 5633 5636 5636 5636 5641 5642 5642 5640 5639 5641 5638 5647 5647 5644 5642 5640 5639
5664 5662 5660 5658 5657 5655 5653 5651 5649 5646 5645 5642 5639 5639 5639 5642 5640 5639 5635 5633 5631 5630 5627 5625 5623 5618 5613 5612 5611 5613 5618 5618 5622 5622 5623 5628 5630 5629 5626 5628 5630 5635 5639 5637 5635 5636 5632
5651 5648 5647 5645 5643 5641 5639 5636 5633 5630 5626 5626 5619 5617 5616 5620 5624 5617 5615 5611 5610 5608 5606 5604 5603 5598 5591 5589 5587 5589 5593 5600 5602 5605 5609 5611 5613 5617 5617 5614 5615 5626 5629 5631 5627 5630 5626
5638 5635 5633 5631 5628 5625 5622 5620 5617 5613 5608 5607 5601 5594 5592 5596 5602 5594 5589 5586 5581 5578 5573 5577 5576 5576 5561 5565 5562 5567 5572 5578 5579 5584 5591 5592 5596 5599 5605 5602 5601 5613 5619 5619 5619 5626 5619
5624 5621 5618 5615 5612 5609 5607 5604 5601 5596 5591 5586 5582 5570 5563 5563 5586 5564 5561 5557 5556 5550 5542 5543 5537 5542 5543 5539 5540 5544 5545 5552 5552 5566 5569 5572 5577 5583 5587 5588 5587 5610 5606 5607 5613 5611 5611
5610 5607 5603 5600 5596 5593 5591 5587 5582 5576 5570 5560 5559 5547 5538 5532 5547 5539 5539 5529 5525 5519 5507 5500 5501 5505 5509 5512 5519 5522 5522 5524 5536 5542 5550 5552 5560 5564 5570 5579 5586 5588 5594 5596 5598 5601 5603